HVDC transfer

From www.emi.ea.govt.nz provided by the Electricity Authority (New Zealand)
Run at: 20240505111536

Parameters
Date range,12 Dec 2018 - 12 Dec 2018
Time scale,Trading period
Show,Average flow (MW)

Period start,Period end,Trading period,Direction,Energy transfer (GWh),Peak flow (MW),Average flow (MW)
12/12/2018 00:00:00,12/12/2018 00:30:00,1,Northward at Haywards,0.207,414,414
12/12/2018 00:30:00,12/12/2018 01:00:00,2,Northward at Haywards,0.179,357,357
12/12/2018 01:00:00,12/12/2018 01:30:00,3,Northward at Haywards,0.174,348,348
12/12/2018 01:30:00,12/12/2018 02:00:00,4,Northward at Haywards,0.152,303,303
12/12/2018 02:00:00,12/12/2018 02:30:00,5,Northward at Haywards,0.134,267,267
12/12/2018 02:30:00,12/12/2018 03:00:00,6,Northward at Haywards,0.144,288,288
12/12/2018 03:00:00,12/12/2018 03:30:00,7,Northward at Haywards,0.144,288,288
12/12/2018 03:30:00,12/12/2018 04:00:00,8,Northward at Haywards,0.162,323,323
12/12/2018 04:00:00,12/12/2018 04:30:00,9,Northward at Haywards,0.160,320,320
12/12/2018 04:30:00,12/12/2018 05:00:00,10,Northward at Haywards,0.175,350,350
12/12/2018 05:00:00,12/12/2018 05:30:00,11,Northward at Haywards,0.187,373,373
12/12/2018 05:30:00,12/12/2018 06:00:00,12,Northward at Haywards,0.229,457,457
12/12/2018 06:00:00,12/12/2018 06:30:00,13,Northward at Haywards,0.251,502,502
12/12/2018 06:30:00,12/12/2018 07:00:00,14,Northward at Haywards,0.263,525,525
12/12/2018 07:00:00,12/12/2018 07:30:00,15,Northward at Haywards,0.312,624,624
12/12/2018 07:30:00,12/12/2018 08:00:00,16,Northward at Haywards,0.357,713,713
12/12/2018 08:00:00,12/12/2018 08:30:00,17,Northward at Haywards,0.371,742,742
12/12/2018 08:30:00,12/12/2018 09:00:00,18,Northward at Haywards,0.377,754,754
12/12/2018 09:00:00,12/12/2018 09:30:00,19,Northward at Haywards,0.387,774,774
12/12/2018 09:30:00,12/12/2018 10:00:00,20,Northward at Haywards,0.376,751,751
12/12/2018 10:00:00,12/12/2018 10:30:00,21,Northward at Haywards,0.362,723,723
12/12/2018 10:30:00,12/12/2018 11:00:00,22,Northward at Haywards,0.403,805,805
12/12/2018 11:00:00,12/12/2018 11:30:00,23,Northward at Haywards,0.377,753,753
12/12/2018 11:30:00,12/12/2018 12:00:00,24,Northward at Haywards,0.392,784,784
12/12/2018 12:00:00,12/12/2018 12:30:00,25,Northward at Haywards,0.402,803,803
12/12/2018 12:30:00,12/12/2018 13:00:00,26,Northward at Haywards,0.412,823,823
12/12/2018 13:00:00,12/12/2018 13:30:00,27,Northward at Haywards,0.395,790,790
12/12/2018 13:30:00,12/12/2018 14:00:00,28,Northward at Haywards,0.389,777,777
12/12/2018 14:00:00,12/12/2018 14:30:00,29,Northward at Haywards,0.386,771,771
12/12/2018 14:30:00,12/12/2018 15:00:00,30,Northward at Haywards,0.389,777,777
12/12/2018 15:00:00,12/12/2018 15:30:00,31,Northward at Haywards,0.402,803,803
12/12/2018 15:30:00,12/12/2018 16:00:00,32,Northward at Haywards,0.413,826,826
12/12/2018 16:00:00,12/12/2018 16:30:00,33,Northward at Haywards,0.410,820,820
12/12/2018 16:30:00,12/12/2018 17:00:00,34,Northward at Haywards,0.404,807,807
12/12/2018 17:00:00,12/12/2018 17:30:00,35,Northward at Haywards,0.389,777,777
12/12/2018 17:30:00,12/12/2018 18:00:00,36,Northward at Haywards,0.385,769,769
12/12/2018 18:00:00,12/12/2018 18:30:00,37,Northward at Haywards,0.392,784,784
12/12/2018 18:30:00,12/12/2018 19:00:00,38,Northward at Haywards,0.361,722,722
12/12/2018 19:00:00,12/12/2018 19:30:00,39,Northward at Haywards,0.371,741,741
12/12/2018 19:30:00,12/12/2018 20:00:00,40,Northward at Haywards,0.365,729,729
12/12/2018 20:00:00,12/12/2018 20:30:00,41,Northward at Haywards,0.360,719,719
12/12/2018 20:30:00,12/12/2018 21:00:00,42,Northward at Haywards,0.382,763,763
12/12/2018 21:00:00,12/12/2018 21:30:00,43,Northward at Haywards,0.374,747,747
12/12/2018 21:30:00,12/12/2018 22:00:00,44,Northward at Haywards,0.346,691,691
12/12/2018 22:00:00,12/12/2018 22:30:00,45,Northward at Haywards,0.331,662,662
12/12/2018 22:30:00,12/12/2018 23:00:00,46,Northward at Haywards,0.281,561,561
12/12/2018 23:00:00,12/12/2018 23:30:00,47,Northward at Haywards,0.269,538,538
12/12/2018 23:30:00,13/12/2018 00:00:00,48,Northward at Haywards,0.243,486,486
